* Astronomy

Members Login
Username 
 
Password 
    Remember Me  
Post Info TOPIC: Asteroid 2012 BN77


L

Posts: 131433
Date:
Asteroid 2012 BN77
Permalink  
 


Orbital elements:
2012 BN77                                                Earth MOID = 0.2356 AU
Epoch 2012 Mar. 14.0 TT = JDT 2456000.5                 MPC
M  38.63994              (2000.0)            P               Q
n   0.22632972     Peri.   50.61243     +0.73676381     -0.67599293
a   2.6667051      Node   351.88164     +0.58427305     +0.64735674
e   0.5455545      Incl.    5.92708     +0.34030000     +0.35208353
P   4.35           H   19.3           G   0.15           U   7

MPEC 2012 - B93



__________________
Page 1 of 1  sorted by
 
Quick Reply

Please log in to post quick replies.



Create your own FREE Forum
Report Abuse
Powered by ActiveBoard